This demonstration page uses our WeatherBlox Daily Observations layout. Learn more.

Left ArrowRight Arrow

Hourly Observations for May 20, 2021

Temp ( °F °C ) Dew Point ( °F °C ) Humidity (%) Winds ( mph kmh ) Pressure ( in mb ) Visibility ( mi km ) Precip ( " mm )
12:53 am 00:53 Mostly Cloudy 55 12.8 27 -2.8 34 34 WNW 8 13 29.92 1013 10 16 0.00 0.00
1:53 am 01:53 Clear 52 11.1 28 -2.2 40 40 NE 7 11 29.93 1014 10 16 0.00 0.00
2:53 am 02:53 Clear 52 11.1 29 -1.7 41 41 NW 7 11 29.94 1014 10 16 0.00 0.00
3:53 am 03:53 Clear 52 11.1 29 -1.7 41 41 NW 9 15 29.95 1014 10 16 0.00 0.00
4:53 am 04:53 Clear 51 10.6 29 -1.7 43 43 NNW 6 9 29.96 1015 10 16 0.00 0.00
5:53 am 05:53 Sunny 50 10 29 -1.7 44 44 WNW 6 9 29.98 1015 10 16 0.00 0.00
6:53 am 06:53 Sunny 52 11.1 29 -1.7 41 41 NW 6 9 30.00 1016 10 16 0.00 0.00
7:53 am 07:53 Sunny 56 13.3 29 -1.7 36 36 NNE 7 11 30.02 1017 10 16 0.00 0.00
8:53 am 08:53 Sunny 58 14.4 26 -3.3 29 29 N 12 19 30.02 1017 10 16 0.00 0.00
9:53 am 09:53 Sunny 60 15.6 25 -3.9 26 26 NNW 9 15 30.02 1017 10 16 0.00 0.00
10:53 am 10:53 Sunny 63 17.2 22 -5.6 21 21 NNE 15 24 30.01 1016 10 16 0.00 0.00
11:53 am 11:53 Sunny 64 17.8 20 -6.7 18 18 NNE 17 28 30.01 1016 10 16 0.00 0.00
12:53 pm 12:53 Sunny 67 19.4 19 -7.2 16 16 NNE 20 31 29.99 1016 10 16 0.00 0.00
1:53 pm 13:53 Mostly Sunny 68 20 20 -6.7 16 16 NNW 13 20 29.98 1015 10 16 0.00 0.00
2:53 pm 14:53 Sunny 67 19.4 20 -6.7 17 17 NNW 13 20 29.97 1015 10 16 0.00 0.00
3:53 pm 15:53 Sunny 69 20.6 20 -6.7 15 15 N 20 31 29.96 1015 10 16 0.00 0.00
4:53 pm 16:53 Sunny 66 18.9 19 -7.2 16 16 NNW 16 26 29.95 1014 10 16 0.00 0.00
5:53 pm 17:53 Sunny 67 19.4 21 -6.1 17 17 NNW 13 20 29.95 1014 10 16 0.00 0.00
6:53 pm 18:53 Sunny 66 18.9 24 -4.4 20 20 NNW 10 17 29.95 1014 10 16 0.00 0.00
7:53 pm 19:53 Sunny 64 17.8 23 -5 21 21 NNW 15 24 29.95 1014 10 16 0.00 0.00
8:53 pm 20:53 Clear 62 16.7 23 -5 22 22 NNW 8 13 29.97 1015 10 16 0.00 0.00
9:53 pm 21:53 Clear 60 15.6 22 -5.6 23 23 N 8 13 29.99 1016 10 16 0.00 0.00
10:53 pm 22:53 Clear 57 13.9 23 -5 27 27 NNE 5 7 30.00 1016 10 16 0.00 0.00
11:53 pm 23:53 Clear 55 12.8 26 -3.3 33 33 N 5 7 30.00 1016 10 16 0.00 0.00

Powered by AerisWeather